User: anonymous   Login
Location: Unspecified
(0.0000°N, 0.0000°E)
Time: 08:19:04
(UTC+02:00)
Language:

Cosmos 407 Rocket - Orbit

View from above orbital plane
View from above orbital plane
View from above satellite
View from above satellite

Ground track
Ground track

The orbit data is extracted from the following two-line orbital elements,

1 05175U 71035B   14297.78399054  .00000303  00000-0  10933-3 0  5432
2 05175 074.0487 187.0451 0031284 275.3718 084.3867 14.37532435276061
Epoch (UTC): 24 October 2014 18:48:56
Eccentricity: 0.0031284
inclination: 74.0487°
perigee height: 744 km
apogee height: 789 km
right ascension of ascending node: 187.0451°
argument of perigee: 275.3718°
revolutions per day: 14.37532435
mean anomaly at epoch: 84.3867°
orbit number at epoch: 27606

The dashed part of the orbit path shows where the satellite is in the earth's shadow,  

DLR